Powrót do katalogu

STARLINK-30849

AktywnyŁącznośćVLEO
NORAD 58245·PAYLOAD·🇺🇸 United States

Wystrzelony Nov 8, 2023 z Cape Canaveral Space Force Station

Loading…

Następne Przeloty (najbliższe 24 godziny)

TLE

ŚwieżeSource: CelesTrak SupGP

Epoka: Sep 15, 2026, 02:24 UTC

1 58245C 23171R   26258.10048611  .00032368  00000+0  11724-2 0  2588
2 58245  43.0023 295.5520 0001866 261.8286  52.4171 15.27560410    12

Śledź STARLINK-30849 w czasie rzeczywistym z AllMySat

Download on the App Store